QPF
0.15 0.13 0.10 0.10 0.08 0.07 0.10 0.11 0.09 0.11 0.09 0.06 0.05 0.05 0.04 0.04 0.04 0.05 0.06 0.08 0.08 0.07 0.08 0.09 0.09 0.09 0.08 0.09 0.07 0.07 0.08 0.08 0.08 0.05 0.05 0.04 0.04 0.06 0.06 0.05 0.04 0.06 0.06
0.15 0.10 0.09 0.08 0.08 0.08 0.08 0.08 0.09 0.10 0.09 0.07 0.06 0.06 0.05 0.06 0.08 0.09 0.08 0.08 0.08 0.07 0.08 0.08 0.09 0.11 0.11 0.10 0.10 0.10 0.10 0.08 0.07 0.07 0.06 0.05 0.03 0.04 0.06 0.07 0.05 0.05 0.05
0.11 0.09 0.08 0.07 0.09 0.08 0.07 0.08 0.08 0.07 0.08 0.07 0.07 0.06 0.07 0.08 0.09 0.09 0.08 0.07 0.09 0.08 0.07 0.08 0.09 0.12 0.14 0.15 0.14 0.14 0.12 0.11 0.09 0.07 0.07 0.05 0.03 0.03 0.05 0.06 0.06 0.05 0.05
0.07 0.06 0.08 0.07 0.09 0.08 0.06 0.06 0.07 0.07 0.08 0.08 0.08 0.10 0.11 0.10 0.09 0.08 0.07 0.08 0.09 0.09 0.08 0.08 0.10 0.14 0.18 0.19 0.17 0.14 0.11 0.10 0.08 0.10 0.09 0.05 0.03 0.04 0.04 0.06 0.07 0.05 0.04
0.05 0.05 0.07 0.07 0.08 0.07 0.05 0.05 0.06 0.08 0.07 0.07 0.09 0.11 0.12 0.09 0.07 0.06 0.07 0.11 0.12 0.12 0.10 0.10 0.16 0.19 0.18 0.17 0.15 0.13 0.11 0.09 0.09 0.13 0.16 0.09 0.06 0.05 0.04 0.06 0.08 0.07 0.05
0.05 0.04 0.05 0.05 0.06 0.06 0.04 0.04 0.05 0.08 0.08 0.07 0.08 0.08 0.10 0.09 0.07 0.07 0.07 0.10 0.13 0.16 0.18 0.21 0.23 0.19 0.14 0.10 0.08 0.09 0.07 0.07 0.09 0.11 0.18 0.17 0.06 0.05 0.06 0.08 0.10 0.10 0.06
0.04 0.03 0.03 0.04 0.05 0.05 0.05 0.05 0.07 0.09 0.08 0.06 0.07 0.07 0.09 0.09 0.09 0.10 0.09 0.11 0.16 0.21 0.25 0.24 0.17 0.12 0.10 0.07 0.07 0.07 0.06 0.07 0.08 0.08 0.12 0.17 0.08 0.04 0.06 0.08 0.11 0.11 0.06
0.03 0.03 0.04 0.04 0.04 0.03 0.04 0.05 0.07 0.09 0.08 0.08 0.09 0.08 0.11 0.16 0.14 0.12 0.11 0.13 0.17 0.19 0.17 0.13 0.09 0.07 0.07 0.09 0.09 0.09 0.08 0.07 0.08 0.09 0.10 0.13 0.09 0.06 0.08 0.09 0.09 0.11 0.07
0.02 0.05 0.05 0.06 0.04 0.03 0.03 0.04 0.05 0.08 0.09 0.09 0.09 0.10 0.17 0.18 0.15 0.13 0.11 0.11 0.10 0.09 0.09 0.09 0.07 0.07 0.08 0.08 0.09 0.09 0.09 0.08 0.07 0.07 0.07 0.09 0.08 0.09 0.10 0.11 0.12 0.12 0.08
0.03 0.04 0.05 0.05 0.05 0.03 0.03 0.03 0.04 0.05 0.07 0.09 0.08 0.08 0.10 0.08 0.09 0.10 0.11 0.13 0.13 0.12 0.12 0.12 0.11 0.10 0.10 0.12 0.14 0.14 0.11 0.08 0.05 0.06 0.09 0.07 0.06 0.08 0.10 0.10 0.11 0.11 0.07
0.05 0.03 0.03 0.04 0.04 0.04 0.04 0.03 0.04 0.04 0.05 0.06 0.06 0.06 0.07 0.06 0.07 0.08 0.08 0.15 0.17 0.15 0.13 0.13 0.12 0.10 0.12 0.18 0.27 0.25 0.17 0.09 0.05 0.06 0.09 0.05 0.05 0.08 0.09 0.10 0.11 0.10 0.08
0.03 0.06 0.05 0.03 0.04 0.04 0.04 0.04 0.05 0.04 0.05 0.05 0.06 0.07 0.06 0.06 0.06 0.05 0.05 0.09 0.12 0.13 0.14 0.13 0.11 0.09 0.11 0.13 0.20 0.20 0.14 0.10 0.08 0.07 0.09 0.07 0.06 0.08 0.09 0.09 0.11 0.11 0.11
0.02 0.03 0.04 0.03 0.04 0.04 0.04 0.05 0.06 0.06 0.05 0.04 0.05 0.06 0.07 0.07 0.05 0.03 0.03 0.04 0.06 0.09 0.13 0.13 0.13 0.11 0.10 0.11 0.12 0.11 0.10 0.10 0.11 0.09 0.11 0.08 0.07 0.09 0.09 0.11 0.11 0.10 0.10
0.02 0.02 0.03 0.04 0.05 0.04 0.03 0.03 0.04 0.04 0.03 0.03 0.04 0.06 0.07 0.08 0.07 0.05 0.04 0.04 0.05 0.07 0.12 0.15 0.12 0.10 0.10 0.09 0.08 0.07 0.08 0.09 0.10 0.11 0.09 0.05 0.06 0.09 0.08 0.09 0.08 0.06 0.07
0.01 0.02 0.03 0.04 0.05 0.04 0.03 0.03 0.02 0.03 0.03 0.03 0.03 0.04 0.05 0.07 0.07 0.07 0.06 0.07 0.06 0.06 0.10 0.14 0.12 0.08 0.09 0.10 0.08 0.06 0.07 0.06 0.08 0.12 0.09 0.06 0.06 0.06 0.06 0.06 0.05 0.06 0.07
0.01 0.02 0.03 0.04 0.04 0.03 0.03 0.03 0.03 0.03 0.04 0.03 0.03 0.04 0.05 0.07 0.08 0.07 0.06 0.08 0.08 0.06 0.07 0.10 0.11 0.09 0.09 0.09 0.09 0.07 0.06 0.05 0.06 0.10 0.10 0.07 0.06 0.05 0.05 0.05 0.06 0.08 0.08
0.00 0.02 0.04 0.04 0.03 0.03 0.04 0.02 0.02 0.03 0.04 0.04 0.05 0.06 0.05 0.05 0.06 0.05 0.07 0.09 0.08 0.06 0.08 0.12 0.14 0.12 0.11 0.11 0.12 0.10 0.08 0.05 0.06 0.07 0.08 0.07 0.06 0.05 0.05 0.05 0.06 0.09 0.10
0.00 0.01 0.03 0.05 0.03 0.03 0.04 0.04 0.04 0.03 0.03 0.04 0.05 0.04 0.03 0.03 0.05 0.06 0.09 0.13 0.10 0.07 0.11 0.15 0.16 0.14 0.14 0.14 0.14 0.11 0.09 0.06 0.06 0.06 0.06 0.06 0.06 0.04 0.04 0.05 0.06 0.08 0.10
0.00 0.01 0.02 0.03 0.02 0.03 0.03 0.04 0.03 0.03 0.03 0.03 0.03 0.02 0.03 0.03 0.03 0.07 0.17 0.21 0.15 0.08 0.10 0.12 0.14 0.14 0.15 0.16 0.15 0.17 0.13 0.08 0.06 0.05 0.04 0.04 0.04 0.03 0.04 0.06 0.06 0.07 0.09
0.00 0.01 0.01 0.01 0.02 0.04 0.04 0.03 0.03 0.03 0.03 0.03 0.03 0.03 0.03 0.03 0.02 0.04 0.09 0.15 0.10 0.06 0.07 0.08 0.08 0.09 0.10 0.10 0.09 0.11 0.12 0.10 0.07 0.06 0.05 0.04 0.04 0.02 0.02 0.02 0.04 0.04 0.05
0.01 0.01 0.01 0.02 0.02 0.03 0.03 0.04 0.04 0.04 0.04 0.03 0.02 0.03 0.03 0.03 0.02 0.03 0.03 0.05 0.05 0.05 0.07 0.06 0.07 0.08 0.07 0.06 0.06 0.07 0.07 0.07 0.07 0.06 0.06 0.05 0.04 0.02 0.02 0.02 0.04 0.04 0.05
0.01 0.01 0.01 0.01 0.02 0.02 0.02 0.03 0.04 0.05 0.04 0.04 0.03 0.04 0.03 0.03 0.03 0.02 0.03 0.05 0.05 0.05 0.05 0.06 0.06 0.06 0.06 0.06 0.05 0.06 0.07 0.07 0.05 0.04 0.03 0.03 0.04 0.04 0.03 0.02 0.02 0.04 0.06
0.01 0.01 0.00 0.01 0.02 0.02 0.02 0.02 0.02 0.02 0.03 0.04 0.05 0.05 0.05 0.04 0.03 0.02 0.03 0.05 0.05 0.04 0.05 0.05 0.05 0.05 0.06 0.05 0.06 0.07 0.06 0.06 0.06 0.05 0.03 0.02 0.02 0.03 0.03 0.02 0.02 0.04 0.04
0.01 0.00 0.00 0.01 0.02 0.02 0.01 0.01 0.02 0.02 0.03 0.02 0.02 0.03 0.04 0.05 0.04 0.03 0.04 0.06 0.06 0.04 0.05 0.05 0.05 0.05 0.06 0.05 0.05 0.05 0.06 0.05 0.05 0.06 0.04 0.03 0.03 0.03 0.03 0.02 0.02 0.02 0.03
0.00 0.00 0.01 0.01 0.02 0.02 0.01 0.01 0.01 0.02 0.02 0.01 0.01 0.02 0.02 0.02 0.02 0.02 0.03 0.03 0.04 0.05 0.07 0.08 0.07 0.05 0.05 0.05 0.06 0.05 0.04 0.04 0.04 0.04 0.04 0.03 0.03 0.03 0.03 0.03 0.03 0.03 0.02
0.00 0.00 0.01 0.02 0.02 0.01 0.01 0.00 0.01 0.01 0.01 0.01 0.01 0.01 0.01 0.02 0.02 0.02 0.02 0.04 0.04 0.04 0.06 0.09 0.11 0.09 0.07 0.06 0.06 0.07 0.07 0.05 0.05 0.06 0.04 0.04 0.03 0.02 0.03 0.04 0.03 0.02 0.02
MSLP
1007.37 1007.38 1007.51 1007.79 1008.20 1008.69 1009.24 1009.78 1010.28 1010.74 1011.14 1011.51 1011.87 1012.25 1012.65 1013.06 1013.45 1013.80 1014.07 1014.26 1014.37 1014.43 1014.47 1014.51 1014.59 1014.70 1014.82 1014.94 1015.01 1015.04 1015.01 1014.96 1014.91 1014.91 1014.97 1015.11 1015.32 1015.55 1015.78 1015.97 1016.10 1016.16 1016.18
1007.26 1007.41 1007.68 1008.08 1008.57 1009.11 1009.67 1010.20 1010.68 1011.11 1011.50 1011.88 1012.27 1012.68 1013.11 1013.52 1013.91 1014.23 1014.46 1014.61 1014.68 1014.72 1014.76 1014.82 1014.93 1015.07 1015.22 1015.35 1015.42 1015.43 1015.38 1015.30 1015.23 1015.21 1015.28 1015.43 1015.65 1015.90 1016.13 1016.31 1016.41 1016.44 1016.42
1007.13 1007.43 1007.85 1008.36 1008.94 1009.52 1010.09 1010.61 1011.08 1011.50 1011.89 1012.28 1012.69 1013.12 1013.55 1013.96 1014.32 1014.60 1014.78 1014.88 1014.93 1014.95 1015.00 1015.10 1015.25 1015.43 1015.61 1015.75 1015.82 1015.80 1015.72 1015.60 1015.50 1015.46 1015.51 1015.66 1015.88 1016.13 1016.37 1016.55 1016.64 1016.66 1016.63
1007.06 1007.50 1008.04 1008.66 1009.30 1009.93 1010.51 1011.03 1011.49 1011.91 1012.31 1012.71 1013.13 1013.56 1013.98 1014.37 1014.70 1014.93 1015.06 1015.12 1015.15 1015.17 1015.24 1015.37 1015.56 1015.77 1015.98 1016.12 1016.17 1016.13 1016.00 1015.84 1015.70 1015.63 1015.66 1015.80 1016.02 1016.27 1016.51 1016.70 1016.81 1016.84 1016.81
1007.10 1007.65 1008.29 1008.98 1009.67 1010.33 1010.93 1011.45 1011.92 1012.34 1012.74 1013.15 1013.57 1014.00 1014.42 1014.78 1015.06 1015.25 1015.35 1015.38 1015.39 1015.42 1015.51 1015.67 1015.88 1016.11 1016.32 1016.45 1016.48 1016.39 1016.22 1016.02 1015.84 1015.74 1015.75 1015.87 1016.09 1016.35 1016.60 1016.81 1016.94 1016.99 1017.00
1007.28 1007.89 1008.59 1009.32 1010.05 1010.72 1011.33 1011.86 1012.33 1012.76 1013.18 1013.60 1014.02 1014.44 1014.84 1015.17 1015.42 1015.58 1015.65 1015.68 1015.69 1015.73 1015.84 1016.01 1016.23 1016.46 1016.65 1016.75 1016.73 1016.60 1016.38 1016.14 1015.93 1015.80 1015.80 1015.92 1016.14 1016.40 1016.67 1016.90 1017.06 1017.15 1017.19
1007.60 1008.24 1008.95 1009.69 1010.41 1011.09 1011.70 1012.24 1012.73 1013.17 1013.60 1014.02 1014.44 1014.86 1015.23 1015.54 1015.77 1015.92 1015.99 1016.02 1016.05 1016.11 1016.23 1016.40 1016.60 1016.80 1016.94 1016.98 1016.91 1016.73 1016.48 1016.21 1015.99 1015.86 1015.86 1015.99 1016.21 1016.49 1016.76 1017.01 1017.19 1017.31 1017.37
1008.02 1008.64 1009.33 1010.05 1010.75 1011.42 1012.03 1012.58 1013.07 1013.53 1013.97 1014.39 1014.81 1015.21 1015.57 1015.87 1016.09 1016.24 1016.33 1016.38 1016.43 1016.51 1016.63 1016.79 1016.95 1017.09 1017.16 1017.14 1017.01 1016.79 1016.51 1016.24 1016.04 1015.93 1015.96 1016.10 1016.34 1016.62 1016.90 1017.15 1017.33 1017.45 1017.53
1008.48 1009.05 1009.69 1010.36 1011.04 1011.69 1012.29 1012.85 1013.35 1013.82 1014.27 1014.70 1015.11 1015.49 1015.83 1016.12 1016.34 1016.51 1016.63 1016.72 1016.80 1016.89 1017.01 1017.13 1017.24 1017.30 1017.29 1017.19 1017.01 1016.76 1016.48 1016.24 1016.07 1016.01 1016.08 1016.26 1016.51 1016.80 1017.07 1017.30 1017.47 1017.57 1017.63
1008.90 1009.42 1010.00 1010.62 1011.26 1011.89 1012.49 1013.05 1013.57 1014.06 1014.50 1014.93 1015.32 1015.68 1016.00 1016.28 1016.51 1016.70 1016.85 1016.98 1017.10 1017.21 1017.31 1017.39 1017.43 1017.41 1017.31 1017.14 1016.91 1016.64 1016.39 1016.18 1016.08 1016.09 1016.21 1016.44 1016.71 1016.99 1017.25 1017.44 1017.57 1017.63 1017.64
1009.24 1009.70 1010.23 1010.81 1011.42 1012.03 1012.62 1013.20 1013.73 1014.23 1014.68 1015.09 1015.46 1015.80 1016.10 1016.37 1016.61 1016.82 1017.01 1017.17 1017.31 1017.42 1017.50 1017.53 1017.50 1017.40 1017.22 1016.99 1016.72 1016.45 1016.22 1016.08 1016.04 1016.13 1016.32 1016.58 1016.87 1017.15 1017.38 1017.53 1017.60 1017.61 1017.57
1009.48 1009.91 1010.40 1010.94 1011.52 1012.12 1012.72 1013.30 1013.85 1014.36 1014.81 1015.21 1015.56 1015.88 1016.16 1016.42 1016.66 1016.89 1017.09 1017.28 1017.44 1017.55 1017.60 1017.58 1017.48 1017.30 1017.06 1016.77 1016.47 1016.21 1016.01 1015.93 1015.96 1016.11 1016.35 1016.64 1016.95 1017.22 1017.42 1017.53 1017.55 1017.50 1017.42
1009.65 1010.07 1010.54 1011.06 1011.61 1012.20 1012.80 1013.39 1013.95 1014.47 1014.92 1015.32 1015.66 1015.95 1016.22 1016.47 1016.71 1016.94 1017.16 1017.36 1017.52 1017.61 1017.63 1017.56 1017.40 1017.16 1016.85 1016.52 1016.21 1015.95 1015.78 1015.73 1015.81 1016.00 1016.28 1016.59 1016.89 1017.15 1017.32 1017.40 1017.39 1017.31 1017.19
1009.79 1010.22 1010.68 1011.18 1011.72 1012.29 1012.89 1013.49 1014.06 1014.58 1015.04 1015.44 1015.77 1016.06 1016.32 1016.56 1016.79 1017.03 1017.25 1017.45 1017.60 1017.67 1017.65 1017.54 1017.32 1017.02 1016.67 1016.31 1015.97 1015.71 1015.55 1015.52 1015.61 1015.82 1016.09 1016.40 1016.69 1016.92 1017.08 1017.14 1017.12 1017.02 1016.90
1009.97 1010.41 1010.86 1011.35 1011.87 1012.43 1013.01 1013.61 1014.18 1014.72 1015.19 1015.59 1015.93 1016.22 1016.47 1016.71 1016.95 1017.18 1017.39 1017.58 1017.71 1017.75 1017.70 1017.54 1017.28 1016.94 1016.55 1016.16 1015.81 1015.54 1015.37 1015.33 1015.40 1015.57 1015.81 1016.08 1016.33 1016.55 1016.69 1016.75 1016.73 1016.65 1016.54
1010.21 1010.66 1011.11 1011.58 1012.08 1012.62 1013.19 1013.77 1014.34 1014.88 1015.37 1015.78 1016.13 1016.43 1016.70 1016.94 1017.17 1017.39 1017.60 1017.76 1017.86 1017.87 1017.79 1017.59 1017.30 1016.94 1016.53 1016.13 1015.77 1015.47 1015.28 1015.19 1015.20 1015.31 1015.47 1015.67 1015.87 1016.04 1016.17 1016.23 1016.24 1016.20 1016.13
1010.51 1010.98 1011.43 1011.88 1012.36 1012.87 1013.42 1013.98 1014.55 1015.09 1015.58 1016.00 1016.37 1016.68 1016.95 1017.20 1017.43 1017.65 1017.83 1017.97 1018.04 1018.02 1017.91 1017.69 1017.38 1017.01 1016.60 1016.20 1015.83 1015.52 1015.28 1015.13 1015.07 1015.08 1015.14 1015.24 1015.36 1015.47 1015.57 1015.64 1015.68 1015.68 1015.65
1010.86 1011.34 1011.79 1012.23 1012.69 1013.18 1013.71 1014.26 1014.81 1015.33 1015.82 1016.25 1016.62 1016.94 1017.22 1017.47 1017.69 1017.90 1018.06 1018.18 1018.22 1018.17 1018.04 1017.81 1017.50 1017.14 1016.75 1016.36 1016.00 1015.67 1015.40 1015.19 1015.03 1014.93 1014.87 1014.85 1014.87 1014.91 1014.96 1015.01 1015.06 1015.10 1015.12
1011.18 1011.68 1012.15 1012.60 1013.06 1013.54 1014.06 1014.59 1015.11 1015.62 1016.09 1016.50 1016.86 1017.18 1017.45 1017.70 1017.91 1018.10 1018.25 1018.33 1018.35 1018.29 1018.14 1017.92 1017.63 1017.30 1016.95 1016.59 1016.25 1015.93 1015.63 1015.36 1015.12 1014.90 1014.71 1014.57 1014.46 1014.40 1014.38 1014.40 1014.44 1014.49 1014.53
1011.44 1011.96 1012.46 1012.94 1013.43 1013.93 1014.45 1014.97 1015.48 1015.95 1016.38 1016.76 1017.09 1017.38 1017.63 1017.86 1018.06 1018.22 1018.35 1018.42 1018.43 1018.36 1018.21 1018.01 1017.75 1017.46 1017.16 1016.86 1016.56 1016.26 1015.96 1015.65 1015.33 1015.01 1014.71 1014.43 1014.19 1014.01 1013.90 1013.85 1013.85 1013.89 1013.93
1011.57 1012.14 1012.70 1013.24 1013.78 1014.33 1014.86 1015.38 1015.87 1016.31 1016.69 1017.02 1017.30 1017.54 1017.75 1017.94 1018.12 1018.27 1018.38 1018.44 1018.44 1018.37 1018.24 1018.06 1017.85 1017.61 1017.37 1017.13 1016.89 1016.63 1016.34 1016.02 1015.66 1015.27 1014.86 1014.45 1014.09 1013.78 1013.55 1013.40 1013.33 1013.32 1013.34
1011.59 1012.22 1012.85 1013.47 1014.09 1014.70 1015.27 1015.80 1016.27 1016.67 1017.00 1017.27 1017.48 1017.66 1017.82 1017.97 1018.12 1018.25 1018.36 1018.41 1018.42 1018.36 1018.26 1018.11 1017.93 1017.75 1017.57 1017.39 1017.21 1017.01 1016.76 1016.45 1016.07 1015.63 1015.14 1014.63 1014.14 1013.70 1013.34 1013.08 1012.91 1012.82 1012.79
1011.51 1012.20 1012.91 1013.63 1014.34 1015.02 1015.64 1016.19 1016.65 1017.01 1017.28 1017.48 1017.62 1017.74 1017.85 1017.96 1018.09 1018.21 1018.31 1018.38 1018.40 1018.36 1018.27 1018.15 1018.01 1017.87 1017.74 1017.61 1017.49 1017.34 1017.14 1016.86 1016.49 1016.03 1015.50 1014.92 1014.32 1013.77 1013.28 1012.88 1012.59 1012.41 1012.31
1011.40 1012.14 1012.92 1013.72 1014.51 1015.25 1015.92 1016.49 1016.94 1017.28 1017.50 1017.64 1017.72 1017.79 1017.86 1017.94 1018.05 1018.18 1018.29 1018.37 1018.41 1018.39 1018.32 1018.21 1018.08 1017.96 1017.86 1017.77 1017.68 1017.58 1017.43 1017.20 1016.86 1016.42 1015.87 1015.24 1014.58 1013.92 1013.32 1012.79 1012.38 1012.09 1011.91
1011.31 1012.09 1012.91 1013.76 1014.60 1015.39 1016.09 1016.67 1017.12 1017.44 1017.63 1017.73 1017.78 1017.81 1017.85 1017.93 1018.04 1018.17 1018.30 1018.41 1018.46 1018.45 1018.39 1018.28 1018.14 1018.02 1017.91 1017.83 1017.76 1017.69 1017.59 1017.40 1017.12 1016.71 1016.18 1015.54 1014.84 1014.12 1013.42 1012.79 1012.26 1011.86 1011.58
1011.32 1012.09 1012.92 1013.77 1014.61 1015.41 1016.12 1016.71 1017.16 1017.47 1017.65 1017.74 1017.77 1017.80 1017.84 1017.93 1018.05 1018.21 1018.36 1018.47 1018.54 1018.53 1018.46 1018.33 1018.17 1018.01 1017.87 1017.77 1017.70 1017.65 1017.57 1017.44 1017.21 1016.86 1016.37 1015.77 1015.06 1014.31 1013.54 1012.83 1012.20 1011.69 1011.32
Thickness
5793 5794 5786 5786 5785 5785 5785 5785 5785 5785 5785 5784 5784 5783 5783 5782 5781 5781 5780 5778 5777 5776 5775 5774 5773 5772 5771 5770 5769 5768 5767 5766 5765 5764 5763 5761 5760 5759 5757 5757 5757 5756 5753
5795 5793 5786 5785 5785 5784 5784 5784 5784 5784 5784 5783 5782 5782 5781 5781 5780 5779 5778 5777 5776 5775 5774 5774 5772 5771 5770 5769 5768 5767 5765 5764 5763 5762 5761 5760 5758 5757 5756 5756 5756 5756 5752
5795 5792 5788 5784 5784 5784 5783 5783 5783 5783 5783 5782 5781 5781 5780 5780 5779 5778 5777 5776 5775 5774 5774 5773 5771 5770 5769 5768 5767 5765 5764 5762 5762 5761 5761 5762 5759 5756 5755 5755 5754 5752 5751
5794 5792 5788 5784 5783 5783 5783 5782 5782 5782 5782 5781 5781 5780 5779 5779 5778 5777 5776 5775 5775 5774 5773 5772 5770 5769 5768 5767 5765 5764 5762 5761 5761 5761 5763 5763 5760 5756 5754 5753 5752 5750 5749
5794 5792 5787 5783 5783 5782 5782 5781 5781 5781 5780 5780 5780 5779 5778 5778 5777 5776 5775 5774 5774 5773 5772 5771 5769 5768 5767 5765 5764 5763 5762 5761 5760 5761 5762 5761 5759 5754 5753 5752 5750 5749 5748
5794 5793 5788 5783 5782 5782 5781 5780 5780 5780 5779 5779 5778 5778 5777 5776 5776 5775 5774 5773 5773 5772 5770 5769 5768 5767 5766 5764 5763 5762 5761 5760 5761 5762 5760 5760 5757 5753 5752 5751 5749 5748 5747
5795 5793 5789 5783 5782 5781 5780 5779 5779 5779 5779 5778 5777 5777 5776 5775 5774 5774 5773 5773 5772 5771 5770 5769 5768 5767 5765 5764 5762 5761 5760 5760 5762 5761 5759 5758 5755 5752 5750 5750 5748 5747 5746
5795 5794 5789 5783 5782 5780 5779 5779 5778 5778 5778 5778 5777 5775 5775 5774 5773 5773 5774 5773 5772 5771 5770 5769 5767 5766 5765 5764 5763 5761 5760 5759 5761 5761 5759 5757 5753 5750 5749 5748 5747 5746 5745
5795 5793 5791 5788 5784 5781 5779 5778 5777 5777 5777 5776 5775 5774 5774 5773 5773 5772 5773 5773 5772 5771 5769 5768 5767 5765 5764 5764 5764 5762 5760 5759 5761 5761 5759 5757 5752 5750 5748 5747 5746 5744 5744
5794 5793 5792 5790 5787 5786 5783 5778 5777 5776 5776 5775 5774 5774 5774 5773 5773 5772 5772 5771 5771 5770 5768 5767 5766 5765 5764 5763 5763 5761 5760 5759 5761 5761 5759 5756 5753 5750 5747 5746 5745 5744 5742
5790 5791 5791 5791 5788 5787 5785 5780 5779 5777 5776 5775 5775 5774 5774 5775 5775 5773 5772 5770 5769 5768 5767 5766 5765 5765 5764 5763 5762 5761 5760 5763 5762 5761 5758 5754 5752 5749 5747 5746 5744 5743 5742
5787 5789 5790 5789 5789 5787 5785 5782 5781 5780 5778 5777 5776 5776 5776 5774 5774 5774 5771 5769 5769 5768 5767 5766 5765 5765 5764 5766 5763 5761 5763 5763 5762 5760 5757 5753 5751 5749 5747 5745 5744 5742 5741
5789 5789 5789 5787 5786 5786 5785 5783 5782 5781 5778 5778 5776 5776 5775 5775 5775 5775 5773 5771 5770 5769 5769 5767 5767 5767 5766 5766 5765 5764 5763 5763 5761 5759 5756 5752 5750 5748 5746 5744 5743 5741 5740
5788 5788 5788 5787 5785 5783 5784 5783 5782 5781 5780 5779 5777 5776 5775 5775 5774 5774 5773 5773 5772 5771 5769 5769 5767 5766 5765 5765 5764 5762 5761 5761 5760 5758 5753 5750 5748 5747 5745 5743 5742 5741 5739
5788 5788 5787 5785 5785 5783 5782 5782 5782 5781 5781 5779 5776 5776 5775 5775 5774 5773 5771 5771 5772 5771 5769 5768 5767 5766 5764 5763 5762 5760 5759 5758 5758 5756 5752 5748 5747 5745 5743 5742 5740 5739 5738
5789 5789 5788 5786 5785 5782 5781 5781 5781 5781 5778 5778 5777 5775 5774 5775 5773 5773 5772 5771 5771 5769 5768 5767 5766 5765 5764 5762 5760 5758 5758 5757 5756 5754 5752 5748 5746 5744 5741 5740 5739 5738 5737
5791 5790 5787 5786 5785 5782 5781 5781 5781 5780 5780 5778 5776 5775 5773 5774 5773 5773 5773 5772 5771 5769 5767 5766 5766 5765 5763 5762 5760 5758 5757 5755 5754 5751 5750 5748 5747 5743 5740 5739 5738 5737 5735
5793 5789 5788 5788 5785 5783 5780 5780 5781 5780 5779 5778 5777 5775 5773 5773 5773 5773 5774 5773 5771 5771 5769 5767 5766 5764 5762 5761 5758 5758 5756 5754 5752 5750 5749 5746 5745 5744 5741 5738 5736 5735 5734
5793 5790 5787 5787 5785 5783 5782 5781 5781 5779 5778 5778 5777 5776 5774 5773 5773 5773 5773 5772 5772 5772 5770 5768 5766 5764 5761 5759 5758 5756 5755 5753 5751 5750 5748 5746 5743 5742 5741 5737 5736 5734 5732
5795 5791 5788 5787 5785 5784 5783 5782 5781 5780 5780 5779 5777 5775 5774 5774 5773 5773 5773 5771 5772 5771 5768 5766 5763 5761 5760 5759 5758 5756 5754 5752 5751 5749 5747 5746 5743 5742 5740 5739 5737 5734 5731
5795 5792 5789 5787 5785 5784 5783 5781 5780 5779 5779 5779 5778 5776 5775 5774 5773 5772 5773 5771 5770 5769 5766 5765 5763 5760 5759 5758 5755 5751 5751 5751 5749 5747 5746 5745 5743 5741 5739 5737 5736 5734 5732
5796 5793 5791 5788 5787 5785 5784 5782 5781 5780 5781 5780 5778 5776 5775 5774 5774 5774 5771 5771 5770 5768 5765 5763 5761 5760 5759 5758 5754 5748 5744 5744 5745 5747 5745 5743 5742 5741 5739 5737 5734 5732 5731
5798 5795 5794 5790 5788 5787 5785 5784 5782 5780 5780 5779 5777 5776 5775 5775 5774 5772 5771 5771 5769 5769 5766 5763 5762 5759 5756 5756 5756 5751 5745 5741 5740 5741 5741 5741 5739 5738 5737 5736 5733 5731 5729
5802 5800 5796 5793 5790 5788 5786 5784 5781 5778 5776 5776 5777 5777 5776 5775 5774 5773 5771 5770 5769 5769 5765 5765 5763 5760 5757 5755 5754 5752 5750 5747 5740 5735 5737 5738 5737 5735 5735 5735 5733 5730 5728
5806 5803 5799 5794 5791 5789 5787 5784 5781 5780 5779 5779 5778 5776 5775 5775 5773 5772 5771 5769 5767 5767 5765 5763 5761 5760 5759 5756 5753 5751 5748 5745 5744 5738 5731 5731 5733 5734 5733 5731 5730 5729 5726
5808 5805 5802 5796 5791 5789 5787 5785 5782 5780 5778 5777 5776 5775 5775 5775 5774 5772 5771 5769 5767 5766 5764 5762 5760 5759 5757 5755 5754 5752 5749 5745 5742 5738 5734 5730 5729 5730 5730 5728 5727 5726 5724